Regional Weather Roundup
Issued by NWS

Home | Current Version | Previous Version | Text Only | Print | Product List | Glossary On
Versions: 1 2 3 4 5 6 7 8 9 10 11 12 13 14 15 16 17 18 19 20 21 22 23 24 25 26 27 28 29 30 31 32 33 34 35 36 37 38 39 40 41 42 43 44 45 46 47 48 49 50
000
ASUS42 KKEY 020710
RWRKEY

FLORIDA REGIONAL WEATHER ROUNDUP FOR THE FLORIDA KEYS
NATIONAL WEATHER SERVICE KEY WEST FLORIDA
300 AM EDT THU APR 02 2015

...SOUTH FLORIDA AND THE KEYS...

CITY           SKY/WX    TMP DP  RH WIND       PRES   REMARKS
FORT MYERS     CLEAR     65  63  93 CALM      30.14F
SW REGIONAL AP PTCLDY    63  61  93 CALM      30.15S
NAPLES         PTCLDY    66  62  87 CALM      30.14F
MIAMI          PTCLDY    69  62  78 CALM      30.14F
WEST KENDALL   MOCLDY    64  61  90 CALM      30.14F
HOMESTEAD      CLEAR     64  63  94 CALM      30.13F
MARATHON       PTCLDY    73  63  70 E3        30.13F
BOCA CHICA NAS CLEAR     72  62  71 E8        30.12F
KEY WEST INTL  CLEAR     73  62  68 E7        30.13F

...INTERNATIONAL WEATHER...

CITY           SKY/WX    TMP DP  RH WIND       PRES   REMARKS
NASSAU BAHAMAS NOT AVBL
CANCUN MEXICO  PTCLDY    77  66  69 E8        30.04F
COZUMEL MEXICO   N/A    N/A N/A N/A MISG        N/A

ADJACENT COASTAL WATERS...

STATION/POSITION TIME  SKY/WX   TEMP    WIND        PRES    WAVE
                                AIR SEA DIR/SP/G            HT/PER
                 (UTC)          (F)     (DEG/KT/KT) (MB)    (FT/S)
PULASKI SHOAL LI 0600            74      80/ 12/ 13 1019.9F
SAND KEY         0650            75      90/ 12/ 14 1019.9F
SOMBRERO KEY     0700            74     100/ 10/ 11 1020.8F
LONG KEY         0700            75 76   90/  8/  9 1021.0F
MOLASSES REEF    0700            75 77  110/  7/  7 1020.4F
FOWEY ROCKS      NOT AVBL

$$


USA.gov is the U.S. government's official web portal to all federal, state and local government web resources and services.